EST,Max TemperatureF,Mean TemperatureF,Min TemperatureF,Max Dew PointF,MeanDew PointF,Min DewpointF,Max Humidity, Mean Humidity, Min Humidity, Max Sea Level PressureIn, Mean Sea Level PressureIn, Min Sea Level PressureIn, Max VisibilityMiles, Mean VisibilityMiles, Min VisibilityMiles, Max Wind SpeedMPH, Mean Wind SpeedMPH, Max Gust SpeedMPH,PrecipitationIn, CloudCover, Events, WindDirDegrees
2014-2-1,19,15,10,13,9,3,88,78,67,30.10,30.01,29.91,10,7,2,8,3,10,0.01,8,Snow,281
2014-2-2,17,8,-1,11,7,-2,88,77,66,30.26,30.11,29.96,10,5,1,16,7,23,0.04,8,Snow,292
2014-2-3,18,7,-4,6,-2,-9,95,72,49,30.30,30.27,30.21,10,10,10,7,2,10,0.00,3,,103
2014-2-4,21,13,4,10,4,0,92,72,51,30.42,30.36,30.24,10,10,7,9,3,13,T,5,,322
2014-2-5,14,10,5,3,0,-1,83,72,61,30.35,30.29,30.21,10,9,1,18,8,26,T,5,Snow,323
2014-2-6,14,7,-1,2,0,-6,87,74,61,30.31,30.16,30.03,10,10,8,15,8,21,T,6,Snow,250
2014-2-7,12,4,-4,2,-3,-11,86,70,53,30.07,30.04,29.99,10,10,10,16,9,22,T,1,,245
2014-2-8,17,7,-3,4,-1,-8,87,71,54,30.20,30.14,30.04,10,10,7,13,3,16,T,5,Snow,208
2014-2-9,17,7,-4,5,-1,-7,88,71,53,30.18,30.11,30.04,10,9,3,15,5,20,T,3,Snow,323
2014-2-10,8,1,-6,-1,-5,-10,87,71,55,30.41,30.27,30.12,10,8,2,16,7,20,T,5,Snow,294
2014-2-11,11,1,-10,-1,-7,-16,87,70,52,30.48,30.42,30.33,10,10,4,10,3,13,T,3,Snow,192
2014-2-12,19,10,0,13,9,-4,87,77,67,30.32,30.10,29.99,10,6,1,16,8,22,0.01,8,Snow,190
2014-2-13,22,16,9,18,15,5,92,84,76,30.04,29.77,29.56,9,4,1,17,8,24,0.04,8,Snow,108
2014-2-14,27,17,7,18,14,2,91,82,73,29.83,29.60,29.48,10,3,1,20,6,28,0.10,8,Snow,360
2014-2-15,11,5,-2,4,-2,-8,88,72,55,30.08,29.99,29.81,10,7,2,13,4,14,0.05,4,Snow,327
2014-2-16,16,5,-7,7,0,-10,83,65,46,30.38,30.15,29.99,10,6,2,12,5,15,0.05,5,Snow,31
2014-2-17,18,6,-6,9,1,-9,84,69,53,30.41,30.13,29.81,10,7,1,23,9,31,0.08,3,Snow,106
2014-2-18,28,18,7,18,13,6,92,80,68,29.83,29.75,29.60,10,8,1,14,6,19,0.06,5,Snow,106
2014-2-19,36,28,20,24,20,17,92,76,59,29.90,29.68,29.56,10,7,1,14,4,20,0.00,6,,223
2014-2-20,36,26,16,30,22,14,92,77,61,29.98,29.80,29.39,10,8,1,25,10,40,0.06,4,Rain-Snow,105
2014-2-21,36,27,18,33,23,12,89,80,71,29.39,29.18,29.09,10,3,0,31,19,46,0.07,8,Fog-Rain-Snow,188
2014-2-22,21,17,13,12,9,6,80,68,56,29.79,29.60,29.38,10,8,2,23,13,30,T,8,Snow,244
2014-2-23,18,13,8,10,6,2,83,69,54,29.95,29.88,29.80,10,4,0,22,13,31,0.04,6,Snow,275
2014-2-24,13,8,2,6,1,-2,86,74,61,30.12,30.01,29.89,10,6,2,21,10,28,T,7,Snow,294
2014-2-25,13,6,-1,6,1,-7,91,79,66,30.10,29.97,29.90,10,3,0,22,10,30,0.04,8,Snow,269
2014-2-26,8,-1,-11,3,-5,-15,83,70,56,29.98,29.65,29.41,10,6,0,23,11,30,0.03,5,Snow,236
2014-2-27,2,-6,-15,-7,-13,-21,87,72,56,30.22,29.78,29.44,10,5,1,25,15,36,T,6,Snow,297
2014-2-28,9,-6,-21,5,-7,-26,81,70,59,30.32,30.17,30.01,10,6,1,13,6,18,0.09,6,Snow,115